Latest Coastal Weather Observations for Northern Endeavour (near 10.5S 126E)

IDD60701

Issued at 3:41 pm CST Monday 22 December 2014 (issued every 10 minutes, with the page automatically refreshed every 10 minutes)

About coastal observations | Map of coastal stations | Coastal observations for NT | Marine services | Other Formats
Station Details ID: 200212 Name: NORTHERN ENDEAVOUR Lat: -10.61 Lon: 125.98 Height: 16.0 m
Data from the previous 72 hours. | See also: Recent months for locations in Northern Territory
Date/Time
CST
Temp

°C
Wind Pressure Rain
since 9am
mm
Weather Cloud Vis
km
Sea
Height
m
Swell
Dir
 
Speed
knots
Gust
knots
hPa Trend Height
m
Period
s
Dir
22/03:40pm 30.6 ENE 3 4 1006.1 - - - - 10 - - - -
22/03:30pm 30.5 NE 3 3 1006.2 - - - - 10 - - - -
22/03:20pm 30.3 NE 3 4 1006.4 - - - - 10 - - - -
22/03:10pm 30.2 NE 3 3 1006.6 - - - - 10 - - - -
22/03:00pm 30.2 ENE 2 4 1006.8 - - - - 10 - - - -
22/02:50pm 30.4 E 3 4 1006.9 - - - - 10 - - - -
22/02:40pm 30.4 ENE 3 4 1007.1 - - - Partly cloudy 10 - - - -
22/02:30pm 30.4 E 2 3 1007.2 - - - Partly cloudy 10 - - - -
22/02:20pm 30.6 E 2 3 1007.3 - - - Partly cloudy 10 - - - -
22/02:10pm 30.3 E 2 3 1007.5 - - - Partly cloudy 10 - - - -
22/02:00pm 30.6 E 2 4 1007.5 - - - - 10 - - - -
22/01:50pm 30.5 ENE 1 1 1007.7 - - - - 10 - - - -
22/01:40pm 30.2 E 3 3 1007.8 - - - Partly cloudy 10 - - - -
22/01:30pm 30.2 E 3 5 1007.8 - - - Partly cloudy 10 - - - -
22/01:20pm 30.0 E 2 4 1007.8 - - - Partly cloudy 10 - - - -
22/01:10pm 30.2 ENE 3 3 1008.0 - - - Partly cloudy 10 - - - -
22/01:00pm 30.0 NE 4 5 1008.1 - - - Partly cloudy 10 - - - -
22/12:50pm 30.0 NE 4 4 1008.2 - - - Partly cloudy 10 - - - -
22/12:40pm 29.9 NE 4 5 1008.3 - - - Partly cloudy 10 - - - -
22/12:30pm 29.9 NE 5 5 1008.4 - - - Partly cloudy 10 - - - -
22/12:20pm 29.8 NNE 5 6 1008.4 - - - Partly cloudy 10 - - - -
22/12:10pm 29.9 NNE 6 7 1008.6 - - - Partly cloudy 10 - - - -
22/12:00pm 29.8 NNE 6 8 1008.7 - - - Partly cloudy 10 - - - -
22/11:50am 29.9 NNE 5 7 1008.8 - - - Partly cloudy 10 - - - -
22/11:40am 29.8 - 7 8 1008.9 - - - Partly cloudy 10 - - - -
22/11:30am 29.7 N 7 8 1009.1 - - - Partly cloudy 10 - - - -
22/11:20am 29.8 NNE 5 9 1009.2 - - - Partly cloudy 10 - - - -
22/11:10am 30.2 NE 5 7 1009.4 - - - - 10 - - - -
22/11:00am 30.2 NE 5 6 1009.4 - - - Partly cloudy 10 - - - -
22/10:50am 30.1 NE 6 7 1009.5 - - - Partly cloudy 10 - - - -
22/10:40am 30.1 ENE 6 8 1009.5 - - - Partly cloudy 10 - - - -
22/10:30am 30.0 ENE 5 7 1009.4 - - - Partly cloudy 10 - - - -
22/10:20am 30.3 ENE 6 7 1009.3 - - - Partly cloudy 10 - - - -
22/10:10am 30.2 ENE 4 5 1009.4 - - - Partly cloudy 10 - - - -
22/10:00am 29.9 ENE 6 6 1009.3 - - - Partly cloudy 10 - - - -
22/09:50am 29.9 ENE 6 7 1009.3 - - - Partly cloudy 10 - - - -
22/09:40am 29.9 NE 6 8 1009.2 - - - - 10 - - - -
22/09:30am 29.8 NE 5 6 1009.2 - - - - 10 - - - -
22/09:20am 29.8 NE 6 6 1009.0 - - - - 10 - - - -
22/09:10am 29.7 NE 6 5 1009.0 - - - - 10 - - - -
22/09:00am 29.7 ENE 5 7 1008.7 - - - - 10 - - - -
22/08:50am 29.8 NE 5 6 1008.6 - - - - 10 - - - -
22/08:40am 29.7 ENE 5 7 1008.5 - - - - 10 - - - -
22/08:30am 29.8 ENE 4 5 1008.4 - - - - 10 - - - -
22/08:20am 29.7 ENE 4 6 1008.4 - - - Partly cloudy 10 - - - -
22/08:10am 29.7 E 4 5 1008.3 - - - - 10 - - - -
22/08:00am 29.6 ENE 4 4 1008.2 - - - - 10 - - - -
22/07:50am 29.6 E 5 4 1008.0 - - - - 10 - - - -
22/07:40am 29.6 E 5 6 1007.9 - - - Partly cloudy 10 - - - -
22/07:30am 29.6 ENE 3 5 1007.7 - - - Partly cloudy 10 - - - -
22/07:20am 29.5 E 3 3 1007.6 - - - - 10 - - - -
22/07:10am 29.5 E 3 4 1007.4 - - - Partly cloudy 10 - - - -
22/07:00am 29.5 E 4 4 1007.3 - - - Partly cloudy 10 - - - -
22/06:50am 29.4 E 4 6 1007.2 - - - Partly cloudy 10 - - - -
22/06:40am 29.4 E 4 4 1007.1 - - - - 10 - - - -
22/06:30am 29.4 E 4 4 1006.8 - - - - 10 - - - -
22/06:20am 29.4 E 4 4 1006.8 - - - - 10 - - - -
22/06:10am 29.4 ESE 3 4 1006.8 - - - - 10 - - - -
22/06:00am 29.4 ESE 3 5 1006.7 - - - - 10 - - - -
22/05:50am 29.4 ESE 2 3 1006.7 - - - - 10 - - - -
22/05:40am 29.4 ESE 1 2 1006.7 - - - - 10 - - - -
22/05:30am 29.4 ESE 1 1 1006.6 - - - - 10 - - - -
22/05:20am 29.4 ESE 3 3 1006.5 - - - - 10 - - - -
22/05:10am 29.5 SE 3 4 1006.4 - - - - 10 - - - -
22/05:00am 29.5 SE 3 3 1006.4 - - - Partly cloudy 10 - - - -
22/04:50am 29.5 ESE 1 3 1006.4 - - - Partly cloudy 10 - - - -
22/04:40am 29.5 SE 2 2 1006.4 - - - Partly cloudy 10 - - - -
22/04:30am 29.5 SE 2 3 1006.4 - - - - 10 - - - -
22/04:20am 29.6 ESE 3 4 1006.5 - - - - 10 - - - -
22/04:10am 29.5 E 3 3 1006.4 - - - - 10 - - - -
22/04:00am 29.5 E 3 3 1006.4 - - - - 10 - - - -
22/03:50am 29.5 E 3 3 1006.5 - - - - 10 - - - -
22/03:40am 29.5 E 3 4 1006.4 - - - - 10 - - - -
22/03:30am 29.6 ESE 3 4 1006.4 - - - - 10 - - - -
22/03:20am 29.6 ESE 3 3 1006.4 - - - - 10 - - - -
22/03:10am 29.6 E 3 3 1006.4 - - - - 10 - - - -
22/03:00am 29.6 ESE 4 3 1006.4 - - - - 10 - - - -
22/02:50am 29.6 E 4 5 1006.5 - - - - 10 - - - -
22/02:40am 29.6 E 4 5 1006.5 - - - Partly cloudy 10 - - - -
22/02:30am 29.6 E 3 3 1006.7 - - - - 10 - - - -
22/02:20am 29.6 SE 4 5 1006.7 - - - - 10 - - - -
22/02:10am 29.6 SE 4 5 1006.8 - - - - 10 - - - -
22/02:00am 29.6 SE 5 4 1006.7 - - - - 10 - - - -
22/01:50am 29.6 SE 5 6 1006.7 - - - - 10 - - - -
22/01:40am 29.6 SSE 4 4 1006.9 - - - - 10 - - - -
22/01:30am 29.7 SSE 4 5 1007.0 - - - - 10 - - - -
22/01:20am 29.7 SSE 4 4 1007.1 - - - - 10 - - - -
22/01:10am 29.6 SSE 3 4 1007.1 - - - - 10 - - - -
22/01:00am 29.7 SSE 3 4 1007.3 - - - - 10 - - - -
22/12:50am 29.6 SE 3 4 1007.3 - - - - 10 - - - -
22/12:40am 29.7 SSE 3 3 1007.3 - - - - 10 - - - -
22/12:30am 29.7 SE 3 3 1007.4 - - - - 10 - - - -
22/12:20am 29.7 SSE 3 3 1007.5 - - - - 10 - - - -
22/12:10am 29.8 SE 4 3 1007.5 - - - - 10 - - - -
22/12:00am 29.8 SSE 4 6 1007.5 - - - - 10 - - - -
 
Date/Time
CST
Temp

°C
Wind Pressure Rain
since 9am
mm
Weather Cloud Vis
km
Sea
Height
m
Swell
Dir
 
Speed
knots
Gust
knots
hPa Trend Height
m
Period
s
Dir
21/11:50pm 29.8 SSE 4 5 1007.6 - - - - 10 - - - -
21/11:40pm 29.8 SE 3 5 1007.6 - - - - 10 - - - -
21/11:30pm 29.8 SE 3 3 1007.6 - - - - 10 - - - -
21/11:20pm 29.9 SE 4 4 1007.7 - - - - 10 - - - -
21/11:10pm 29.9 SE 4 4 1007.8 - - - - 10 - - - -
21/11:00pm 29.9 SE 4 4 1007.7 - - - - 10 - - - -
21/10:50pm 29.9 SE 4 5 1007.7 - - - - 10 - - - -
21/10:40pm 29.9 SE 4 4 1007.6 - - - - 10 - - - -
21/10:30pm 29.8 SE 4 5 1007.6 - - - - 10 - - - -
21/10:20pm 29.9 SSE 4 4 1007.6 - - - - 10 - - - -
21/10:10pm 29.9 SSE 3 4 1007.5 - - - - 10 - - - -
21/10:00pm 30.0 SSE 4 5 1007.5 - - - - 10 - - - -
21/09:50pm 29.9 S 3 4 1007.5 - - - - 10 - - - -
21/09:40pm 29.9 S 3 4 1007.4 - - - - 10 - - - -
21/09:30pm 29.9 S 3 4 1007.3 - - - - 10 - - - -
21/09:20pm 29.9 S 3 4 1007.2 - - - - 10 - - - -
21/09:10pm 30.0 S 4 4 1007.0 - - - - 10 - - - -
21/09:00pm 30.0 S 5 6 1006.8 - - - - 10 - - - -
21/08:50pm 29.9 S 4 5 1006.6 - - - - 10 - - - -
21/08:40pm 29.9 S 5 5 1006.5 - - - - 10 - - - -
21/08:30pm 29.9 SSW 4 6 1006.3 - - - - 10 - - - -
21/08:20pm 29.9 SSW 4 4 1006.3 - - - Partly cloudy 10 - - - -
21/08:10pm 29.8 SW 4 4 1006.3 - - - - 10 - - - -
21/08:00pm 29.8 SW 4 5 1006.1 - - - Partly cloudy 10 - - - -
21/07:50pm 29.9 SW 5 6 1006.1 - - - Partly cloudy 10 - - - -
21/07:40pm 30.2 SW 5 6 1006.1 - - - Partly cloudy 10 - - - -
21/07:30pm 29.9 WNW 4 5 1006.1 - - - Partly cloudy 10 - - - -
21/07:20pm 29.9 WNW 3 5 1006.0 - - - Partly cloudy 10 - - - -
21/07:10pm 29.9 W 4 5 1005.9 - - - Partly cloudy 10 - - - -
21/07:00pm 30.1 WSW 3 3 1005.8 - - - Partly cloudy 10 - - - -
21/06:50pm 30.3 WSW 4 4 1005.7 - - - Partly cloudy 10 - - - -
21/06:40pm 30.4 WSW 2 4 1005.7 - - - Partly cloudy 10 - - - -
21/06:30pm 31.4 SW 3 2 1005.6 - - - Partly cloudy 10 - - - -
21/06:20pm 31.9 SSW 5 6 1005.5 - - - - 10 - - - -
21/06:10pm 30.7 WSW 3 5 1005.4 - - - - 10 - - - -
21/06:00pm 31.3 WSW 3 2 1005.4 - - - - 10 - - - -
21/05:50pm 30.9 SW 3 4 1005.3 - - - - 10 - - - -
21/05:40pm 32.6 SW 3 3 1005.3 - - - - 10 - - - -
21/05:30pm 32.3 SW 2 4 1005.3 - - - - 10 - - - -
21/05:20pm 31.7 SW 3 3 1005.2 - - - - 10 - - - -
21/05:10pm 31.6 SW 3 4 1005.2 - - - - 10 - - - -
21/05:00pm 30.8 SW 3 4 1005.3 - - - Partly cloudy 10 - - - -
21/04:50pm 32.8 WSW 2 3 1005.4 - - - Partly cloudy 10 - - - -
21/04:40pm 33.2 SSW 2 2 1005.5 - - - Partly cloudy 10 - - - -
21/04:30pm 32.0 S 2 3 1005.5 - - - - 10 - - - -
21/04:20pm 31.2 SSW 3 3 1005.5 - - - Partly cloudy 10 - - - -
21/04:10pm 33.0 SW 3 3 1005.6 - - - Partly cloudy 10 - - - -
21/04:00pm 33.0 SSW 2 4 1005.7 - - - Partly cloudy 10 - - - -
21/03:50pm 32.0 S 2 4 1005.8 - - - Partly cloudy 10 - - - -
21/03:40pm 31.2 W 1 1 1006.0 - - - Partly cloudy 10 - - - -
21/03:30pm 30.7 NW 1 2 1006.2 - - - Partly cloudy 10 - - - -
21/03:20pm 30.7 SSW 1 2 1006.3 - - - Cloudy 10 - - - -
21/03:10pm 30.6 WSW 1 2 1006.4 - - - Partly cloudy 10 - - - -
21/03:00pm 31.3 WNW 1 1 1006.5 - - - Partly cloudy 10 - - - -
21/02:50pm 31.5 W 2 2 1006.6 - - - Partly cloudy 10 - - - -
21/02:40pm 30.6 NW 1 2 1006.8 - - - Partly cloudy 10 - - - -
21/02:30pm 30.6 WSW 1 1 1006.8 - - - Partly cloudy 10 - - - -
21/02:20pm 31.7 SW 2 3 1006.8 - - - Partly cloudy 10 - - - -
21/02:10pm 31.5 W 3 2 1006.9 - - - - 10 - - - -
21/02:00pm 30.4 W 3 4 1007.0 - - - Partly cloudy 10 - - - -
21/01:50pm 31.2 W 3 4 1007.3 - - - Partly cloudy 10 - - - -
21/01:40pm 31.8 W 2 3 1007.5 - - - Partly cloudy 10 - - - -
21/01:30pm 30.1 NW 2 2 1007.6 - - - - 10 - - - -
21/01:20pm 30.3 WNW 3 3 1007.7 - - - - 10 - - - -
21/01:10pm 30.8 WNW 3 2 1007.7 - - - - 10 - - - -
21/01:00pm 32.0 WNW 4 4 1007.9 - - - - 10 - - - -
21/12:50pm 31.5 W 4 4 1008.0 - - - Partly cloudy 10 - - - -
21/12:40pm 30.4 WNW 3 4 1008.1 - - - Partly cloudy 10 - - - -
21/12:30pm 32.8 W 2 2 1008.2 - - - Partly cloudy 10 - - - -
21/12:20pm 32.2 SW 2 3 1008.3 - - - - 10 - - - -
21/12:10pm 31.2 SW 2 4 1008.4 - - - Partly cloudy 10 - - - -
21/12:00pm 33.1 S 3 3 1008.5 - - - Partly cloudy 10 - - - -
21/11:50am 31.0 WSW 2 3 1008.6 - - - Partly cloudy 10 - - - -
21/11:40am 32.1 SSW 2 3 1008.7 - - - Partly cloudy 10 - - - -
21/11:30am 31.3 S 2 3 1008.7 - - - Partly cloudy 10 - - - -
21/11:20am 31.9 SSW 1 2 1008.7 - - - Partly cloudy 10 - - - -
21/11:10am 31.4 SW 1 2 1008.9 - - - Partly cloudy 10 - - - -
21/11:00am 30.7 W 1 3 1009.0 - - - Partly cloudy 10 - - - -
21/10:50am 30.6 WNW 1 2 1009.0 - - - Partly cloudy 10 - - - -
21/10:40am 32.1 NNW 1 2 1009.1 - - - Partly cloudy 10 - - - -
21/10:30am 30.8 NNW 1 1 1009.2 - - - Partly cloudy 10 - - - -
21/10:20am 30.2 WNW 1 1 1009.2 - - - - 10 - - - -
21/10:10am 30.0 WNW 2 2 1009.1 - - - - 10 - - - -
21/10:00am 31.1 W 3 3 1009.2 - - - - 10 - - - -
21/09:50am 29.9 WNW 2 4 1009.2 - - - - 10 - - - -
21/09:40am 30.0 WNW 2 2 1009.1 - - - - 10 - - - -
21/09:30am 30.1 W 2 2 1009.1 - - - - 10 - - - -
21/09:20am 30.0 W 2 2 1009.1 - - - - 10 - - - -
21/09:10am 29.8 WNW 2 2 1009.1 - - - - 10 - - - -
21/09:00am 29.7 WNW 3 2 1008.9 - - - - 10 - - - -
21/08:50am 29.8 W 4 4 1008.8 - - - - 10 - - - -
21/08:40am 29.7 WNW 4 5 1008.7 - - - - 10 - - - -
21/08:30am 29.6 WNW 4 5 1008.6 - - - - 10 - - - -
21/08:20am 29.5 WNW 3 4 1008.6 - - - - 10 - - - -
21/08:10am 29.4 NW 3 4 1008.5 - - - - 10 - - - -
21/08:00am 29.5 WNW 3 3 1008.4 - - - - 10 - - - -
21/07:50am 29.3 WNW 3 5 1008.3 - - - - 10 - - - -
21/07:40am 29.2 NW 3 3 1008.1 - - - - 10 - - - -
21/07:30am 29.2 NW 3 4 1008.0 - - - - 10 - - - -
21/07:20am 29.2 NW 3 3 1007.9 - - - - 10 - - - -
21/07:10am 29.1 WNW 3 3 1007.8 - - - - 10 - - - -
21/07:00am 29.1 NW 3 4 1007.7 - - - - 10 - - - -
21/06:50am 29.0 NW 2 2 1007.6 - - - - 10 - - - -
21/06:40am 29.0 WNW 3 3 1007.6 - - - - 10 - - - -
21/06:30am 29.0 W 3 3 1007.5 - - - - 10 - - - -
21/06:20am 28.9 WNW 3 4 1007.4 - - - - 10 - - - -
21/06:10am 28.9 WNW 3 3 1007.5 - - - - 10 - - - -
21/06:00am 28.9 W 3 4 1007.4 - - - - 10 - - - -
21/05:50am 28.9 WSW 2 3 1007.3 - - - - 10 - - - -
21/05:40am 28.9 S 2 3 1007.2 - - - - 10 - - - -
21/05:30am 28.9 SSW 2 3 1007.1 - - - - 10 - - - -
21/05:20am 29.0 WSW 3 3 1007.0 - - - - 10 - - - -
21/05:10am 28.9 SW 2 2 1006.8 - - - - 10 - - - -
21/05:00am 28.8 SW 2 3 1006.8 - - - - 9 - - - -
21/04:50am 28.9 WSW 2 2 1006.8 - - - - 10 - - - -
21/04:40am 28.8 WSW 1 2 1006.8 - - - - 10 - - - -
21/04:30am 28.9 SSW 1 2 1006.8 - - - - 10 - - - -
21/04:20am 28.9 SSE 1 2 1006.7 - - - - 10 - - - -
21/04:10am 28.9 SSE 1 2 1006.7 - - - - 10 - - - -
21/04:00am 28.9 SW 1 1 1006.8 - - - - 10 - - - -
21/03:50am 28.9 E 1 1 1006.9 - - - - 10 - - - -
21/03:40am 28.9 SE 1 2 1006.9 - - - - 10 - - - -
21/03:30am 29.1 ESE 1 3 1006.9 - - - - 10 - - - -
21/03:20am 29.1 E 1 1 1007.0 - - - - 10 - - - -
21/03:10am 29.1 ESE 3 3 1007.0 - - - - 10 - - - -
21/03:00am 29.1 SE 4 4 1007.1 - - - - 10 - - - -
21/02:50am 29.2 SE 3 4 1007.2 - - - - 10 - - - -
21/02:40am 29.2 SSE 4 4 1007.4 - - - - 10 - - - -
21/02:30am 29.2 SE 4 5 1007.4 - - - - 10 - - - -
21/02:20am 29.2 SE 4 4 1007.4 - - - - 10 - - - -
21/02:10am 29.3 ESE 4 4 1007.6 - - - - 10 - - - -
21/02:00am 29.3 SE 4 5 1007.7 - - - - 10 - - - -
21/01:50am 29.3 SSE 3 3 1007.8 - - - - 10 - - - -
21/01:40am 29.2 SSE 3 4 1007.9 - - - - 10 - - - -
21/01:30am 29.3 SSE 4 4 1008.2 - - - - 10 - - - -
21/01:20am 29.3 SSE 4 4 1008.2 - - - - 10 - - - -
21/01:10am 29.3 SSE 5 5 1008.4 - - - - 10 - - - -
21/01:00am 29.3 SSE 4 5 1008.4 - - - - 10 - - - -
21/12:50am 29.3 SSE 5 5 1008.6 - - - - 10 - - - -
21/12:40am 29.4 SSE 4 6 1008.8 - - - - 10 - - - -
21/12:30am 29.4 SSE 6 6 1009.1 - - - - 10 - - - -
21/12:20am 29.4 SSE 6 7 1009.2 - - - - 10 - - - -
21/12:10am 29.4 SSE 6 6 1009.4 - - - - 10 - - - -
21/12:00am 29.4 SSE 6 8 1009.5 - - - - 10 - - - -
 
Date/Time
CST
Temp

°C
Wind Pressure Rain
since 9am
mm
Weather Cloud Vis
km
Sea
Height
m
Swell
Dir
 
Speed
knots
Gust
knots
hPa Trend Height
m
Period
s
Dir
20/11:50pm 29.5 S 6 8 1009.5 - - - - 10 - - - -
20/11:40pm 29.4 S 7 8 1009.5 - - - - 10 - - - -
20/11:30pm 29.4 SSE 5 6 1009.6 - - - - 10 - - - -
20/11:20pm 29.4 SSE 5 6 1009.6 - - - - 10 - - - -
20/11:10pm 29.4 SSE 5 7 1009.6 - - - - 10 - - - -
20/11:00pm 29.5 S 6 8 1009.6 - - - - 10 - - - -
20/10:50pm 29.4 S 5 7 1009.5 - - - - 10 - - - -
20/10:40pm 29.5 S 5 7 1009.4 - - - - 10 - - - -
20/10:30pm 29.5 SSE 5 7 1009.3 - - - - 10 - - - -
20/10:20pm 29.5 SSE 4 4 1009.3 - - - - 10 - - - -
20/10:10pm 29.5 SSE 3 4 1009.1 - - - - 10 - - - -
20/10:00pm 29.5 SSE 4 5 1008.9 - - - - 10 - - - -
20/09:50pm 29.5 SSE 4 4 1008.8 - - - - 10 - - - -
20/09:40pm 29.5 SSE 3 4 1008.7 - - - - 10 - - - -
20/09:30pm 29.6 SSE 3 3 1008.5 - - - - 10 - - - -
20/09:20pm 29.6 SSE 3 3 1008.4 - - - - 10 - - - -
20/09:10pm 29.7 SSE 2 4 1008.2 - - - - 10 - - - -
20/09:00pm 29.7 S 3 3 1007.9 - - - - 10 - - - -
20/08:50pm 29.7 SSW 4 4 1007.8 - - - - 10 - - - -
20/08:40pm 29.8 S 5 6 1007.6 - - - - 10 - - - -
20/08:30pm 29.8 S 4 4 1007.4 - - - - 10 - - - -
20/08:20pm 29.8 SSE 5 7 1007.3 - - - - 10 - - - -
20/08:10pm 29.7 SSE 5 6 1007.1 - - - - 10 - - - -
20/08:00pm 29.7 SSE 6 5 1007.1 - - - - 10 - - - -
20/07:50pm 29.8 SSE 7 8 1006.9 - - - - 10 - - - -
20/07:40pm 29.8 SSE 6 7 1006.8 - - - - 10 - - - -
20/07:30pm 29.8 S 6 7 1006.7 - - - - 10 - - - -
20/07:20pm 29.8 S 6 6 1006.7 - - - - 10 - - - -
20/07:10pm 29.9 S 6 10 1006.6 - - - - 10 - - - -
20/07:00pm 29.9 SSW 7 8 1006.6 - - - - 10 - - - -
20/06:50pm 30.1 SSW 8 8 1006.3 - - - - 10 - - - -
20/06:40pm 30.8 SSW 8 9 1006.2 - - - - 10 - - - -
20/06:30pm 30.8 SSW 7 9 1006.1 - - - - 10 - - - -
20/06:20pm 31.5 SSW 8 8 1006.0 - - - - 10 - - - -
20/06:10pm 31.7 SSW 8 9 1006.0 - - - - 10 - - - -
20/06:00pm 31.6 SSW 7 9 1005.9 - - - Partly cloudy 10 - - - -
20/05:50pm 31.5 SSW 7 8 1006.0 - - - Partly cloudy 10 - - - -
20/05:40pm 31.4 SSW 8 9 1005.9 - - - - 10 - - - -
20/05:30pm 31.6 S 8 12 1005.9 - - - - 10 - - - -
20/05:20pm 32.1 SSE 6 10 1005.8 - - - - 10 - - - -
20/05:10pm 32.0 S 5 5 1005.8 - - - - 10 - - - -
20/05:00pm 32.0 S 5 6 1005.7 - - - - 10 - - - -
20/04:50pm 32.3 S 6 8 1005.7 - - - - 10 - - - -
20/04:40pm 32.7 S 6 9 1005.7 - - - Partly cloudy 10 - - - -
20/04:30pm 33.0 S 6 7 1005.9 - - - - 10 - - - -
20/04:20pm 32.2 S 5 6 1005.9 - - - - 10 - - - -
20/04:10pm 32.6 S 4 6 1006.0 - - - Partly cloudy 10 - - - -
20/04:00pm 32.6 S 4 6 1006.1 - - - Partly cloudy 10 - - - -
20/03:50pm 32.4 S 4 7 1006.0 - - - Partly cloudy 10 - - - -
20/03:40pm 32.6 S 5 6 1005.9 - - - - 10 - - - -
20/03:30pm 31.9 SSE 3 7 1006.1 - - - - 10 - - - -
20/03:20pm 31.7 SSE 3 5 1006.1 - - - - 10 - - - -
20/03:10pm 30.5 ENE 1 3 1006.2 - - - - 10 - - - -
20/03:00pm 30.4 ESE 2 3 1006.4 - - - - 10 - - - -
20/02:50pm 30.0 ENE 1 2 1006.5 - - - - 10 - - - -
20/02:40pm 29.5 ESE 3 2 1006.6 - - - - 10 - - - -
20/02:30pm 29.0 ESE 4 5 1006.7 - - - - 10 - - - -
20/02:20pm 29.1 ESE 4 5 1006.8 - - - Partly cloudy 10 - - - -
20/02:10pm 28.9 ESE 4 5 1006.9 - - - Partly cloudy 10 - - - -
20/02:00pm 28.9 ESE 5 6 1007.2 - - - Partly cloudy 10 - - - -
20/01:50pm 28.7 ESE 5 6 1007.4 - - - - 10 - - - -
20/01:40pm 28.7 ESE 5 6 1007.6 - - - - 10 - - - -
20/01:30pm 28.6 SE 6 7 1007.8 - - - - 10 - - - -
20/01:20pm 28.7 SE 5 6 1008.0 - - - Partly cloudy 10 - - - -
20/01:10pm 28.7 SE 5 6 1008.2 - - - - 10 - - - -
20/01:00pm 28.4 SE 4 5 1008.3 - - - - 10 - - - -
20/12:50pm 28.4 ESE 4 6 1008.2 - - - - 10 - - - -
20/12:40pm 28.9 ESE 3 5 1008.5 - - - - 9 - - - -
20/12:30pm 29.0 S 5 5 1008.7 - - - Partly cloudy 10 - - - -
20/12:20pm 29.1 SSE 5 6 1009.0 - - - - 10 - - - -
20/12:10pm 28.5 SSE 7 10 1009.2 - - - Partly cloudy 10 - - - -
20/12:00pm 28.2 SSE 10 9 1009.4 - - - Partly cloudy 10 - - - -
20/11:50am 28.3 SSE 13 13 1009.7 - - - Partly cloudy 10 - - - -
20/11:40am 28.5 SSE 15 17 1009.8 - - - Partly cloudy 10 - - - -
20/11:30am 27.9 SE 19 23 1010.2 - - - Partly cloudy 10 - - - -
20/11:20am 27.7 SSE 10 20 1010.3 - - - Partly cloudy 10 - - - -
20/11:10am 30.8 SSE 7 6 1010.3 - - - Partly cloudy 10 - - - -
20/11:00am 30.5 SSE 8 10 1010.4 - - - Partly cloudy 10 - - - -
20/10:50am 30.9 SSE 6 8 1010.3 - - - - 10 - - - -
20/10:40am 30.7 SSE 5 6 1010.2 - - - - 10 - - - -
20/10:30am 30.6 SSE 5 6 1010.5 - - - - 10 - - - -
20/10:20am 30.7 SSE 5 6 1010.5 - - - - 10 - - - -
20/10:10am 30.4 SSE 4 5 1010.6 - - - - 10 - - - -
20/10:00am 30.4 SSE 4 5 1010.6 - - - - 10 - - - -
20/09:50am 31.1 SSE 3 5 1010.6 - - - - 10 - - - -
20/09:40am 30.9 S 4 5 1010.5 - - - - 10 - - - -
20/09:30am 30.9 S 5 6 1010.5 - - - - 10 - - - -
20/09:20am 30.7 S 5 5 1010.5 - - - - 10 - - - -
20/09:10am 30.8 S 6 7 1010.5 - - - - 10 - - - -
20/09:00am 30.8 S 4 6 1010.3 - - - Partly cloudy 10 - - - -
20/08:50am 31.1 SW 5 5 1010.4 - - - - 10 - - - -
20/08:40am 31.4 SW 5 5 1010.1 - - - - 10 - - - -
20/08:30am 31.5 SW 4 6 1010.2 - - - - 10 - - - -
20/08:20am 31.4 SW 5 5 1010.2 - - - - 10 - - - -
20/08:10am 30.9 SSW 5 6 1010.1 - - - - 10 - - - -
20/08:00am 30.6 SSW 5 7 1010.2 - - - - 10 - - - -
20/07:50am 30.3 SSW 5 5 1010.3 - - - - 10 - - - -
20/07:40am 30.3 SSW 6 6 1010.2 - - - - 10 - - - -
20/07:30am 30.2 SSW 6 7 1010.3 - - - - 10 - - - -
20/07:20am 30.0 SSW 6 7 1010.1 - - - - 10 - - - -
20/07:10am 29.9 SSW 5 8 1009.8 - - - Partly cloudy 10 - - - -
20/07:00am 29.8 SSW 5 5 1009.4 - - - - 10 - - - -
20/06:50am 29.6 S 5 7 1009.3 - - - - 10 - - - -
20/06:40am 29.7 SSW 5 4 1009.3 - - - - 10 - - - -
20/06:30am 29.7 SSW 3 6 1009.2 - - - - 10 - - - -
20/06:20am 29.7 SSW 5 3 1009.2 - - - Partly cloudy 10 - - - -
20/06:10am 29.7 SW 4 8 1009.0 - - - Partly cloudy 10 - - - -
20/06:00am 29.8 SSW 6 8 1008.8 - - - Partly cloudy 10 - - - -
20/05:50am 29.8 SW 6 8 1008.8 - - - Partly cloudy 10 - - - -
20/05:40am 29.7 SW 7 10 1008.6 - - - Partly cloudy 10 - - - -
20/05:30am 29.7 SW 7 10 1008.4 - - - Partly cloudy 10 - - - -
20/05:20am 29.6 SW 6 7 1008.2 - - - - 10 - - - -
20/05:10am 29.6 SW 6 9 1008.0 - - - Partly cloudy 10 - - - -
20/05:00am 29.7 SW 5 6 1007.9 - - - - 10 - - - -
20/04:50am 29.6 SW 5 6 1007.9 - - - - 10 - - - -
20/04:40am 29.7 SW 5 4 1007.9 - - - Partly cloudy 10 - - - -
20/04:30am 29.6 SW 5 6 1007.9 - - - Partly cloudy 10 - - - -
20/04:20am 29.6 SW 6 6 1007.9 - - - Partly cloudy 10 - - - -
20/04:10am 29.6 SW 4 6 1007.9 - - - - 10 - - - -
20/04:00am 29.6 WSW 5 6 1007.9 - - - - 10 - - - -
20/03:50am 29.6 SW 5 6 1007.9 - - - - 10 - - - -
20/03:40am 29.6 SW 4 6 1008.0 - - - - 10 - - - -
20/03:30am 29.6 SW 4 4 1008.0 - - - - 10 - - - -
20/03:20am 29.6 SW 4 7 1008.1 - - - - 10 - - - -
20/03:10am 29.6 SW 3 4 1008.2 - - - - 10 - - - -
20/03:00am 29.5 SW 4 2 1008.3 - - - - 10 - - - -
20/02:50am 29.5 SW 3 4 1008.5 - - - - 10 - - - -
20/02:40am 29.6 SW 4 5 1008.6 - - - - 10 - - - -
20/02:30am 29.7 SW 5 5 1008.7 - - - - 10 - - - -
20/02:20am 29.7 SW 4 5 1008.8 - - - - 10 - - - -
20/02:10am 29.8 SW 5 6 1008.9 - - - - 10 - - - -
20/02:00am 29.9 SW 5 5 1009.1 - - - - 10 - - - -
20/01:50am 29.8 SW 5 5 1009.1 - - - - 10 - - - -
20/01:40am 29.8 S 5 6 1009.4 - - - - 10 - - - -
20/01:30am 29.9 SSW 6 6 1009.5 - - - - 10 - - - -
20/01:20am 29.9 SSW 5 8 1009.7 - - - Partly cloudy 10 - - - -
20/01:10am 29.9 SSW 6 6 1009.9 - - - Partly cloudy 10 - - - -
20/01:00am 29.9 SSW 5 8 1010.1 - - - Partly cloudy 10 - - - -
20/12:50am 29.9 SSW 6 8 1010.3 - - - Partly cloudy 10 - - - -
20/12:40am 30.0 S 7 7 1010.3 - - - Partly cloudy 10 - - - -
20/12:30am 30.0 SSW 7 8 1010.3 - - - Partly cloudy 10 - - - -
20/12:20am 29.9 SSW 6 8 1010.3 - - - Partly cloudy 10 - - - -
20/12:10am 29.9 SSW 6 6 1010.2 - - - - 10 - - - -
20/12:00am 30.0 SSW 5 7 1010.3 - - - - 10 - - - -
 
Date/Time
CST
Temp

°C
Wind Pressure Rain
since 9am
mm
Weather Cloud Vis
km
Sea
Height
m
Swell
Dir
 
Speed
knots
Gust
knots
hPa Trend Height
m
Period
s
Dir
19/11:50pm 30.1 SSW 5 5 1010.2 - - - Partly cloudy 10 - - - -
19/11:40pm 30.1 SSW 5 7 1010.3 - - - Partly cloudy 10 - - - -
19/11:30pm 30.1 SSW 6 7 1010.3 - - - Partly cloudy 10 - - - -
19/11:20pm 30.1 SSW 5 7 1010.4 - - - - 10 - - - -
19/11:10pm 30.2 SSW 4 7 1010.3 - - - - 10 - - - -
19/11:00pm 30.2 SSW 5 6 1010.2 - - - - 10 - - - -
19/10:50pm 30.2 SSW 4 5 1010.1 - - - - 10 - - - -
19/10:40pm 30.2 SW 4 5 1010.0 - - - - 10 - - - -
19/10:30pm 30.2 SSW 4 6 1010.1 - - - - 10 - - - -
19/10:20pm 30.2 SSW 5 5 1010.2 - - - - 10 - - - -
19/10:10pm 30.3 S 3 6 1010.3 - - - - 10 - - - -
19/10:00pm 30.3 S 4 5 1010.4 - - - - 10 - - - -
19/09:50pm 30.3 S 5 6 1010.5 - - - - 10 - - - -
19/09:40pm 30.3 S 4 6 1010.4 - - - - 10 - - - -
19/09:30pm 30.3 S 5 7 1010.2 - - - - 10 - - - -
19/09:20pm 30.3 SSW 4 6 1010.1 - - - - 10 - - - -
19/09:10pm 30.4 S 4 5 1009.9 - - - - 10 - - - -
19/09:00pm 30.3 SSW 3 5 1009.7 - - - - 10 - - - -
19/08:50pm 30.3 S 4 4 1009.7 - - - - 10 - - - -
19/08:40pm 30.3 S 4 5 1009.5 - - - - 10 - - - -
19/08:30pm 30.3 S 4 6 1009.3 - - - - 10 - - - -
19/08:20pm 30.3 SSW 3 5 1009.1 - - - - 10 - - - -
19/08:10pm 30.2 S 2 2 1008.8 - - - - 10 - - - -
19/08:00pm 30.4 SSW 3 6 1008.5 - - - - 10 - - - -
19/07:50pm 30.6 SW 3 4 1008.4 - - - - 10 - - - -
19/07:40pm 30.8 W 2 4 1008.1 - - - - 10 - - - -
19/07:30pm 31.0 WSW 5 4 1007.9 - - - - 10 - - - -
19/07:20pm 30.9 WSW 5 5 1007.8 - - - - 10 - - - -
19/07:10pm 30.6 WSW 3 4 1007.7 - - - - 10 - - - -
19/07:00pm 30.6 SW 3 3 1007.6 - - - - 10 - - - -
19/06:50pm 30.9 SW 3 4 1007.4 - - - - 10 - - - -
19/06:40pm 31.2 SW 4 4 1007.2 - - - - 10 - - - -
19/06:30pm 30.7 WSW 4 6 1007.1 - - - - 10 - - - -
19/06:20pm 31.0 W 4 4 1007.1 - - - - 10 - - - -
19/06:10pm 30.9 W 3 5 1007.1 - - - - 10 - - - -
19/06:00pm 31.0 W 3 3 1006.9 - - - - 10 - - - -
19/05:50pm 30.9 WNW 3 5 1006.8 - - - - 10 - - - -
19/05:40pm 31.0 NNW 2 3 1006.7 - - - - 10 - - - -
19/05:30pm 31.6 NNW 2 2 1006.8 - - - - 10 - - - -
19/05:20pm 30.8 N 3 3 1007.0 - - - - 10 - - - -
19/05:10pm 31.0 N 3 3 1007.1 - - - - 10 - - - -
19/05:00pm 30.9 NW 3 3 1007.2 - - - - 10 - - - -
19/04:50pm 31.6 WNW 2 1 1007.4 - - - - 10 - - - -
19/04:40pm 31.1 WNW 3 2 1007.6 - - - - 10 - - - -
19/04:30pm 30.7 N 2 2 1007.6 - - - - 10 - - - -
19/04:20pm 30.6 NW 3 4 1007.7 - - - - 10 - - - -
19/04:10pm 30.6 NW 3 3 1007.8 - - - - 10 - - - -
19/04:00pm 32.7 WNW 3 4 1008.0 - - - - 10 - - - -
19/03:50pm 32.7 W 2 3 1008.1 - - - - 10 - - - -

Other Formats:

Comma delimited format used in spreadsheet applications
http://www.bom.gov.au/fwo/IDD60701/IDD60701.95100.axf

JavaScript Object Notation format (JSON) in row-major order
http://www.bom.gov.au/fwo/IDD60701/IDD60701.95100.json